AirNav   Everest Fuels
 
 1132 users online  

MU05 Arch Heliport
St Louis, Missouri, USA

GOING TO ST LOUIS?


FAA INFORMATION EFFECTIVE 05 DECEMBER 2019

Location

FAA Identifier: MU05
Lat/Long: 38-37-30.8800N 090-12-47.7600W
38-37.514667N 090-12.796000W
38.6252444,-90.2132667
(estimated)
Elevation: 500 ft. / 152 m (estimated)
Variation: 01E (1990)
Time zone: UTC -6 (UTC -5 during Daylight Saving Time)
Zip code: 63104

Heliport Operations

Heliport use: Private use, MEDICAL USE.
Activation date: 12/1993
Control tower: no
ARTCC: KANSAS CITY CENTER
FSS: SAINT LOUIS FLIGHT SERVICE STATION
Attendance: CONTINUOUS
Wind indicator: yes
Segmented circle: no

Heliport Communications

WX ASOS at CPS (4 nm SE): PHONE 618-332-0001
WX ASOS at STL (10 nm NW): PHONE 314-890-4790
WX AWOS-3 at ALN (18 nm NE): 128.0 (618-259-7231)

Nearby radio navigation aids

VOR radial/distance  VOR name  Freq  Var
TOYr240/15.4TROY VORTAC116.0004E
STLr137/18.9ST LOUIS VORTAC117.4001E
FTZr092/35.8FORISTELL VORTAC110.8005E

 
NDB name  Hdg/Dist  Freq  Var  ID
ACORE311/9.635000ECP -.-. .--.
ZUMAY164/10.240401WST ... -
CIVIC MEMORIAL206/17.626301WCVM -.-. ...- --

Heliport Services

Runway Information

Helipad H1

Dimensions: 30 x 30 ft. / 9 x 9 m
Surface: concrete
Latitude: 38-37.514667N
Longitude: 090-12.796000W
Elevation: 500.0 ft.
Traffic pattern: leftleft

Heliport Ownership and Management from official FAA records

Ownership: Privately-owned
Owner: ARCH
2207 SCOTT AVE
ST LOUIS, MO 63103
Phone 314-640-3354
Manager: ROBERT GROVES
2207 SCOTT AVE
ST LOUIS, MO 63103
Phone (314) 486-2783

Additional Remarks

A52-H1 45' BLDG 250' SW.
FOR CD CTC ST LOUIS APCH AT 314-890-1018.

Instrument Procedures

There are no published instrument procedures at MU05.

Some nearby airports with instrument procedures:

KCPS - St Louis Downtown Airport (4 nm SE)
KSTL - St Louis Lambert International Airport (10 nm NW)
1H0 - Creve Coeur Airport (15 nm NW)
KALN - St Louis Regional Airport (18 nm NE)
KBLV - Scott Air Force Base/MidAmerica Airport (18 nm E)
 
Loc | Ops | Rwys | IFR | FBO | Links
Com | Nav | Svcs | Stats | Notes

Kansas City Aviation Department
 
Area around MU05 (Arch Heliport)
 
Road maps at: MapQuest Bing Google
 
Aerial photo
No photo
 
Sectional chart

 
Airport distance calculator
Flying to Arch Heliport? Find the distance to fly.

From to MU05

Sunrise and sunset
Times for 07-Dec-2019
 Local
(UTC-6)
 Zulu
(UTC)
Morning civil twilight06:3712:37
Sunrise07:0613:06
Sunset16:3822:38
Evening civil twilight17:0823:08

Current date and time
Zulu (UTC)  07-Dec-2019 14:19:42
Local (UTC-6)  07-Dec-2019 08:19:42
 
METAR
KCPS 
5nm SE 
071353Z 00000KT 7SM CLR M04/M06 A3039 RMK AO2 SLP294 I1000 T10441061
KSTL 
10nm NW 
071351Z 00000KT 7SM FEW010 M04/M05 A3038 RMK AO2 SLP299 FU FEW010 T10391050 $
KALN 
18nm NE 
071350Z VRB03KT 10SM SKC M04/M05 A3039
KBLV 
19nm E 
071356Z AUTO 00000KT 10SM CLR M04/M05 A3038 RMK AO2 SLP297 T10411055 $
TAF
KCPS 
5nm SE 
071133Z 0712/0812 VRB03KT P6SM SKC TEMPO 0712/0714 4SM BR SCT003 FM071800 15006KT P6SM SKC FM080900 17006KT P6SM SCT250
KSTL 
10nm NW 
071133Z 0712/0818 VRB03KT P6SM SKC TEMPO 0712/0714 5SM BR FM071800 15006KT P6SM SKC FM080300 17008KT P6SM SCT250 FM081500 18011G17KT P6SM BKN120
KBLV 
19nm E 
070820Z 0708/0814 VRB06KT 9999 SKC QNH3030INS BECMG 0801/0802 17009KT 6000 BR BKN030 QNH3015INS TX07/0720Z TNM03/0712Z
NOTAMs
Click for the latest NOTAMs
NOTAMs are issued by the DoD/FAA and will open in a separate window not controlled by AirNav.

 

 
 

Would you like to see your business listed on this page?

 If your business provides an interesting product or service to pilots, flight crews, aircraft, or users of the Arch Heliport, you should consider listing it here.  To start the listing process, click on the button below
 
Add a business
 

Other Pages about Arch Heliport

members.aol.com/...
 
Update a link
 
Copyright © AirNav, LLC. All rights reserved. Privacy Policy  Contact